Flag for Switzerland Weather past 2 weeks in Altdorf, Uri, Switzerland

Now
58 °F

Rain. Overcast.


Feels Like: 58 °F
Forecast: 56 / 67 °F
Wind: 5 mph from South

Location: Altdorf

Current Time: Jul 29, 2015 at 2:52:57 AM

Latest Report: Jul 29, 2015 at 2:00 AM


Visibility: 13 mi

Pressure: 29.92 "Hg

Humidity: 89%

Dew point: 54 °F

Location of AltdorfLocation

Historic Weather in Altdorf — Graph

°F

Altdorf temperature yesterday

Maximum temperature yesterday: 69 °F (at 2:00 PM)
Minimum temperature yesterday: 59 °F (at 6:00 AM)
Average temperature yesterday: 65 °F

Past Weeks' High & Low Weather Summary

 TemperatureHumidityPressure
High87 °F (Jul 16, 4:00 PM)98% (Jul 20, 2:00 AM)30.13 "Hg (Jul 20, 2:00 AM)
Low57 °F (Jul 26, 8:00 AM)38% (Jul 17, 9:00 PM)29.66 "Hg (Jul 24, 5:00 PM)
Average71 °F68%29.95 "Hg
* Reported Jul 14 1:00 AM — Jul 29 1:00 AM, Altdorf, Weather by CustomWeather, © 2015

Note: Actual official high and low records may vary slightly from our data, if they occured in-between our weather recording intervals... More about our weather records

Advertising

Altdorf weather history for previous 24 hours

 ConditionsComfort  
Time TempWeatherWind HumidityBarometerVisibility
1:00 AM
Wed, Jul 29
60 °FCool.2 mph75%29.95 "HgN/A
12:00 AM61 °FCool.15 mph72%29.94 "HgN/A
10:00 PM
Tue, Jul 28
63 °FMild.1 mph84%29.88 "HgN/A
9:00 PM65 °FMild.2 mph70%29.85 "HgN/A
8:00 PM66 °FOvercast.1 mph68%29.84 "Hg14 mi
7:00 PM67 °FMild.5 mph63%29.83 "HgN/A
6:00 PM68 °FMild.2 mph56%29.83 "HgN/A
5:00 PM67 °FOvercast.14 mph60%29.85 "Hg12 mi
4:00 PM69 °FMild.12 mph58%29.83 "HgN/A
3:00 PM67 °FMild.15 mph57%29.84 "HgN/A
2:00 PM69 °FOvercast.12 mph58%29.84 "Hg16 mi
1:00 PM67 °FMild.10 mph57%29.86 "HgN/A
12:00 PM67 °FMild.13 mph59%29.86 "HgN/A
11:00 AM67 °FPartly sunny.12 mph60%29.87 "Hg16 mi
10:00 AM66 °FMild.13 mph59%29.88 "HgN/A
8:00 AM62 °FPartly sunny.No wind80%29.88 "Hg16 mi
7:00 AM59 °FCool.1 mph85%29.88 "HgN/A
6:00 AM59 °FCool.1 mph81%29.87 "HgN/A
4:00 AM60 °FCool.2 mph76%29.87 "HgN/A
3:00 AM62 °FCool.2 mph71%29.86 "HgN/A
2:00 AM62 °FPassing clouds.3 mph74%29.88 "Hg16 mi
Weather by CustomWeather, © 2015

See weather overviewHow to use our weather pages